{"data":{"norad_id":66791,"epoch":"2026-05-24T23:47:13.892928Z","epoch_age_seconds":72659,"freshness":"FRESH","line1":"1 66791U 25278A   26144.99113302  .00018512  00000+0  68020-3 0  9993","line2":"2 66791  43.0006  43.8745 0001396 248.6491 111.4211 15.27596266 26871","mean_motion":15.27596266,"eccentricity":0.0001396,"inclination_deg":43.0006,"raan_deg":43.8745,"arg_perigee_deg":248.6491,"mean_anomaly_deg":111.4211,"bstar":0.0006802,"rev_number":2687,"period_min":94.265744951749,"perigee_km":482.04257543651,"apogee_km":483.95820499586,"semimajor_km":6861.1373902162,"source":"CELESTRAK","updated_at":"2026-05-25T13:38:21.323856Z"}}